Location: Bonaustraße
(48.4603°N, 11.9280°E)
Time: 20:59:35
(UTC+02:00)

AO-92 - Pass Details

Date: 06 August 2021
Orbit: 484 x 494 km, 97.4° (Epoch: 17 September)

Event Time Altitude Azimuth Distance (km) Brightness Sun altitude
Exits shadow 22:29:29 26° 109° (ESE) 980 ? -15.0°
Maximum altitude 22:30:41 34° 70° (ENE) 818 ? -15.2°
Drops below altitude 10° 22:33:59 10° 4° (N) 1,680 ? -15.5°
Sets 22:36:10 0° 355° (N) 2,567 ? -15.8°
